Regional Weather Roundup
Issued by NWS Charleston, WV

Home | Current Version | Previous Version | Text Only | Print | Product List | Glossary Off
Versions: 1 2 3 4 5 6 7 8 9 10 11 12 13 14 15 16 17 18 19 20 21 22 23 24 25 26 27 28 29 30 31 32 33 34 35 36 37 38 39 40 41 42 43 44 45 46 47 48 49 50

786
ASUS41 KRLX 220510
RWRRLX
CRWRWRRLX ALL
West Virginia Regional Weather Roundup
National Weather Service Charleston WV
Issued by National Weather Service Pittsburgh PA
1200 AM EST WED FEB 22 2017

Note: "fair" indicates few or no clouds below 12,000 feet with no
significant weather and/or obstructions to visibility.

WVZ003-220600-
Northern Panhandle of West Virginia

CITY           SKY/WX    TMP DP  RH WIND       PRES   REMARKS
WHEELING       CLOUDY    59  42  53 W3        29.96S
$$

WVZ009-220600-
Northwest West Virginia

CITY           SKY/WX    TMP DP  RH WIND       PRES   REMARKS
PARKERSBURG    CLOUDY    56  42  59 S5        29.99S
$$

WVZ006-220600-
Western West Virginia

CITY           SKY/WX    TMP DP  RH WIND       PRES   REMARKS
HUNTINGTON     CLOUDY    61  50  67 NW5       29.96S
$$

WVZ015-220600-
West Central West Virginia

CITY           SKY/WX    TMP DP  RH WIND       PRES   REMARKS
CHARLESTON     CLOUDY    63  42  46 E6        29.96F
$$

WVZ031-220600-
North Central West Virginia

CITY           SKY/WX    TMP DP  RH WIND       PRES   REMARKS
CLARKSBURG     CLOUDY    58  39  49 S3        29.98F
MORGANTOWN     MOCLDY    58  37  45 S5        29.98F
$$

WVZ035-042-220600-
South Central West Virginia

CITY           SKY/WX    TMP DP  RH WIND       PRES   REMARKS
BECKLEY        CLOUDY    52  39  61 SE6       30.04F
BLUEFIELD      PTCLDY    50  39  66 S8G18     30.06F
$$

WVZ045-220600-
Greenbrier Valley of West Virginia

CITY           SKY/WX    TMP DP  RH WIND       PRES   REMARKS
LEWISBURG      CLOUDY    45  43  90 CALM      30.07F
$$

WVZ047-220600-
Northern Mountains of West Virginia

CITY           SKY/WX    TMP DP  RH WIND       PRES   REMARKS
ELKINS         CLOUDY    54  36  50 S6        30.02F
$$

WVZ052-220600-
Eastern Panhandle of West Virginia

CITY           SKY/WX    TMP DP  RH WIND       PRES   REMARKS
MARTINSBURG    MOCLDY    47  35  63 N3        30.06F
PETERSBURG     PTCLDY    56  40  53 S8        30.02F
$$




USA.gov is the U.S. government's official web portal to all federal, state and local government web resources and services.